Flag Weather past 2 weeks in Fort Myers, Florida, U.S.A.

Now
76 °F

Partly sunny.


Feels Like: 77 °F
Forecast: 65 / 80 °F
Wind: 14 mph from East

Location: Page Field

Current Time: Nov 22, 2014 at 10:54:13 AM

Latest Report: Nov 22, 2014 at 10:00 AM


Visibility: 10 mi

Pressure: 30.18 "Hg

Humidity: 74%

Dew point: 67 °F

Location of Fort MyersLocation

Historic Weather in Fort Myers — Graph

°F

Fort Myers temperature yesterday

Maximum temperature yesterday: 72 °F (at 3:53 PM)
Minimum temperature yesterday: 60 °F (at 12:53 AM)
Average temperature yesterday: 66 °F

Past Weeks' High & Low Weather Summary

 TemperatureHumidityPressure
High84 °F (Nov 16, 1:53 PM)100% (Nov 9, 2:53 AM)30.31 "Hg (Nov 9, 2:53 AM)
Low47 °F (Nov 19, 6:53 AM)34% (Nov 12, 3:53 PM)29.84 "Hg (Nov 9, 2:53 AM)
Average66 °F77%30.05 "Hg
* Reported Nov 7 10:53 AM — Nov 22 10:00 AM, Fort Myers, Weather by CustomWeather, © 2014

Note: Actual official high and low records may vary slightly from our data, if they occured in-between our weather recording intervals... More about our weather records

Advertising

Fort Myers weather history for previous 24 hours

 ConditionsComfort  
Time TempWeatherWind HumidityBarometerVisibility
10:00 AM
Nov 22
76 °FPartly sunny.14 mph74%30.18 "Hg10 mi
8:53 AM73 °FPartly sunny.10 mph79%30.17 "Hg10 mi
7:53 AM71 °FSunny.10 mph84%30.16 "Hg10 mi
6:53 AM69 °FSunny.8 mph87%30.16 "Hg10 mi
5:53 AM69 °FPassing clouds.9 mph87%30.15 "Hg10 mi
4:53 AM69 °FOvercast.7 mph87%30.14 "Hg10 mi
3:53 AM70 °FOvercast.12 mph84%30.15 "Hg10 mi
2:53 AM69 °FPassing clouds.10 mph90%30.15 "Hg10 mi
1:53 AM68 °FOvercast.10 mph90%30.16 "Hg10 mi
12:53 AM68 °FOvercast.10 mph84%30.17 "Hg10 mi
11:53 PM
Nov 21
68 °FMostly cloudy.8 mph78%30.19 "Hg10 mi
10:53 PM68 °FMostly cloudy.8 mph73%30.19 "Hg10 mi
9:53 PM68 °FMostly cloudy.12 mph73%30.20 "Hg10 mi
8:53 PM68 °FOvercast.13 mph73%30.20 "Hg10 mi
7:53 PM67 °FOvercast.12 mph76%30.19 "Hg10 mi
6:53 PM68 °FMostly cloudy.12 mph76%30.18 "Hg10 mi
5:53 PM69 °FOvercast.15 mph76%30.17 "Hg10 mi
4:53 PM70 °FMostly cloudy.15 mph73%30.16 "Hg10 mi
3:53 PM72 °FMore clouds than sun.13 mph68%30.15 "Hg10 mi
2:53 PM71 °FLight rain. Overcast.9 mph73%30.15 "Hg10 mi
1:53 PM70 °FOvercast.12 mph76%30.15 "Hg10 mi
12:53 PM69 °FOvercast.16 mph76%30.17 "Hg8 mi
11:53 AM70 °FOvercast.12 mph68%30.20 "Hg10 mi
10:53 AM68 °FMostly cloudy.12 mph70%30.22 "Hg10 mi
Weather by CustomWeather, © 2014

See weather overviewHow to use our weather pages